Regional Weather Roundup
Issued by NWS

Home | Current Version | Previous Version | Graphics & Text | Print | Product List | Glossary On
Versions: 1 2 3 4 5 6 7 8 9 10 11 12 13 14 15 16 17 18 19 20 21 22 23 24 25 26 27 28 29 30 31 32 33 34 35 36 37 38 39 40 41 42 43 44 45 46 47 48 49 50
000
ASUS43 KIND 281009
RWRIN

WEATHER ROUNDUP FOR INDIANA
NATIONAL WEATHER SERVICE INDIANAPOLIS IN
600 AM EDT THU APR 28 2016

NOTE: "FAIR" INDICATES FEW OR NO CLOUDS BELOW 12,000 FEET WITH NO
SIGNIFICANT WEATHER AND/OR OBSTRUCTIONS TO VISIBILITY.

* - STATION DOES NOT REPORT WEATHER SUCH AS PRECIPITATION OR FOG.

+ - STATION NOT QUALITY CONTROLLED BY THE NATIONAL WEATHER SERVICE.
    USE DATA WITH CAUTION...ESPECIALLY DEWPOINT AND RELATIVE
    HUMIDITY OBSERVATIONS.

INZ001>003-010>013-019-020-281100-
NORTHWEST INDIANA

CITY           SKY/WX    TMP DP  RH WIND       PRES   REMARKS
GARY /AIRPORT/ DRIZZLE   46  46 100 E9        29.82F
KNOX *+        CLOUDY    45  43  93 E14G21    29.82S
LA PORTE +     CLOUDY    48  42  80 E17       29.82S
MICHIGAN CITY+ CLOUDY    46  39  76 SE7G17    29.83R
MONTICELLO +   LGT RAIN  45  42  88 SE6       29.82R
RENSSELAER +   RAIN      46  45  93 NE7       29.82F
VALPARAISO     LGT RAIN  45  43  93 VRB3      29.85R FOG

$$

LMZ046-743>745-281100-
SOUTHERN LAKE MICHIGAN

STATION/POSITION TIME  TEMP    WIND        PRES    WAVE
                       AIR SEA DIR/SP/G            HT
                 (UTC) (F)     (DEG/KT/KT) (MB)    (FT)
BURNS HARBOR     0905   48     100/  9/ 18 1009.8R
MICHIGAN CITY    0900   47     100/ 11/ 15   N/A

$$

INZ004-005-014>016-021>024-281100-
NORTH CENTRAL INDIANA

CITY           SKY/WX    TMP DP  RH WIND       PRES   REMARKS
GOSHEN         CLOUDY    44  39  82 E14       29.86R
LOGANSPORT +   CLOUDY    45  37  76 E6        29.85R
PERU/GRISSOM   LGT RAIN  46  43  92 E8        29.81R
ROCHESTER +    CLOUDY    46  43  87 E17       29.83F
SOUTH BEND     CLOUDY    45  39  79 E17       29.84S
WARSAW +       CLOUDY    43  39  87 E13G18    29.85S

$$

INZ006>009-017-018-025>027-281100-
NORTHEAST INDIANA

CITY           SKY/WX    TMP DP  RH WIND       PRES   REMARKS
ANGOLA *+      CLOUDY    39  36  87 E8        29.88R
AUBURN +       DRIZZLE   43  37  81 E12G18    29.87R
FORT WAYNE     CLOUDY    43  40  89 E14       29.86R
HUNTINGTON +   CLOUDY   N/A N/A N/A E9        29.84S

$$

INZ028-029-035-036-043>045-051>053-281100-
WEST CENTRAL INDIANA

CITY           SKY/WX    TMP DP  RH WIND       PRES   REMARKS
CRAWFORDSVL +  DRIZZLE   49  49 100 NE12      29.78F
GREENCASTLE +  HVY RAIN  57  57 100 N10       29.79R
LAFAYETTE      LGT RAIN  46  45  96 E10       29.79F
TERRE HAUTE    LGT RAIN  57  55  93 E13       29.73F

$$

INZ030>032-037>040-046>048-054>057-064-065-281100-
CENTRAL INDIANA

CITY           SKY/WX    TMP DP  RH WIND       PRES   REMARKS
CP ATTERBURY + CLOUDY    59  59 100 SE5       29.75F FOG
FISHERS *+     CLOUDY    46  46 100 NE6       29.82R
FRANKFORT +    LGT RAIN  47  47 100 CALM      29.84R
GREENWOOD *+   CLOUDY    57  57 100 N10G20    29.78R
INDIANAPOLIS   RAIN      53  52  96 NE10      29.77R FOG
-EAGLE CREEK   LGT RAIN  52  51  97 N6        29.79R FOG
KOKOMO *+      CLOUDY    45  39  81 E12       29.82R
MARION +       CLOUDY    45  41  87 E14G20    29.82F
SHELBYVILLE    CLOUDY    58  56  93 E10       29.75F FOG
ZIONSVILLE +   TSTM      47  46  97 NE7       29.81R

$$

INZ033-034-041-042-049-050-058-059-281100-
EAST CENTRAL INDIANA

CITY           SKY/WX    TMP DP  RH WIND       PRES   REMARKS
MUNCIE         CLOUDY    47  41  80 E12       29.81F

$$

INZ060-061-067>069-081>083-085>088-281100-
SOUTHWEST INDIANA

CITY           SKY/WX    TMP DP  RH WIND       PRES   REMARKS
EVANSVILLE     FOG       59  58  96 CALM      29.76R VSB 1
HUNTINGBURG *+ CLOUDY    63  57  82 S6        29.76R
WASHINGTON +   CLOUDY    61  61 100 S7        29.75R

$$

INZ062-063-066-070>080-084-089>092-281100-
SOUTH CENTRAL AND SOUTHEAST INDIANA

CITY           SKY/WX    TMP DP  RH WIND       PRES   REMARKS
BEDFORD +      CLOUDY    61  61 100 SE6       29.75R
BLOOMINGTON    CLOUDY    61  59  93 SE6       29.75R
MADISON *+     CLOUDY    61  59  94 SE6       29.80S
NORTH VERNON + CLOUDY   N/A N/A N/A CALM      29.77S HAZE
SEYMOUR +      CLOUDY    63  63 100 CALM      29.76S

$$





USA.gov is the U.S. government's official web portal to all federal, state and local government web resources and services.